Location: Riverside
(39.1734°N, 77.8561°W)
Time: 01:28:09
(UTC+00:00)

Hubble Space Telescope - Visible Passes

Search period start: 25 March 2019 00:00
Search period end: 04 April 2019 00:00
Orbit: 537 x 540 km, 28.5° (Epoch: 24 March)

Date Brightness Start Highest point End Pass type
(mag) Time Alt. Az. Time Alt. Az. Time Alt. Az.
25 Mar 3.1 01:02:30 10° SSW 01:03:28 12° S 01:03:28 12° S visible
26 Mar 2.8 00:51:32 10° SSW 00:53:49 15° SSE 00:53:49 15° SSE visible
27 Mar 2.6 00:40:41 10° SSW 00:43:14 16° S 00:44:06 15° SSE visible
28 Mar 2.7 00:29:55 10° SW 00:32:39 17° S 00:34:21 14° SE visible
29 Mar 2.6 00:19:13 10° SW 00:22:03 18° S 00:24:32 11° SE visible
30 Mar 2.7 00:08:35 10° SW 00:11:28 18° S 00:14:21 10° SE visible
30 Mar 3.4 01:49:38 10° SW 01:50:02 11° SW 01:50:02 11° SW visible
30 Mar 2.7 23:57:59 10° SW 00:00:52 18° S 00:03:46 10° SE visible
31 Mar 3.3 01:39:23 10° SW 01:40:11 12° SSW 01:40:11 12° SSW visible
01 Apr 3.3 01:29:22 10° SW 01:30:20 11° SSW 01:30:20 11° SSW visible
